Regional Weather Roundup
Issued by NWS Grand Forks, ND

Home | Current Version | Previous Version | Graphics & Text | Print | Product List | Glossary On
Versions: 1 2 3 4 5 6 7 8 9 10 11 12 13 14 15 16 17 18 19 20 21 22 23 24 25 26 27 28 29 30 31 32 33 34 35 36 37 38 39 40 41 42 43 44 45 46 47 48 49 50
000
ASUS43 KFGF 191210
RWRFGF
PRAIRIE TO PINES  WEATHER ROUNDUP
NATIONAL WEATHER SERVICE EASTERN NORTH DAKOTA/GRAND FORKS ND
600 AM CST SUN NOV 19 2017

 **SATELLITE DATA USED TO AUGMENT SKY COVER AT AUTOMATED STATIONS**
 *****  WEATHER ACROSS EASTERN NORTH DAKOTA  *****

CITY           SKY/WX    TMP DP  RH WIND       PRES   REMARKS
GRAND FORKS    MOCLDY    15  11  83 S8        29.94F WCI   4
6HR MIN TEMP:  10; 6HR MAX TEMP:  15;

GRAND FRKS AFB FAIR      16  11  80 SW7       29.94F WCI   6
GRAND FRKS NWS   N/A     16 N/A N/A S3          N/A
DEVILS LAKE    CLOUDY    23  19  85 SW9       29.89F WCI  13
6HR MIN TEMP:  11; 6HR MAX TEMP:  23;

FARGO          FAIR      17  12  80 SE6       29.98F WCI   9
WAHPETON ARPT  NOT AVBL
$$

 ***** WEATHER ACROSS CENTRAL AND WESTERN NORTH DAKOTA  *****

CITY           SKY/WX    TMP DP  RH WIND       PRES   REMARKS
BISMARCK       FAIR      23  20  88 SE3       29.95F
6HR MIN TEMP:  14; 6HR MAX TEMP:  28;

MINOT          FAIR      32  23  69 SW17      29.85F WCI  21
6HR MIN TEMP:  19; 6HR MAX TEMP:  32;

JAMESTOWN      FAIR      23  19  85 CALM      29.93F
6HR MIN TEMP:  12; 6HR MAX TEMP:  24;

MINOT AFB      CLOUDY    28  22  79 W7        29.84S WCI  20
GARRISON         N/A     28  24  85 W15       29.87F WCI  16
WILLISTON      FAIR      21  18  88 SW5       29.88F WCI  15
6HR MIN TEMP:  20; 6HR MAX TEMP:  28;

DICKINSON      FAIR      27  19  72 W14       29.90F WCI  16
6HR MIN TEMP:  24; 6HR MAX TEMP:  31;

HETTINGER      FAIR      21  15  78 NW8       29.96F WCI  11
6HR MIN TEMP:  18; 6HR MAX TEMP:  25;

$$

 *****  OTHER AIRPORT OBSERVATIONS IN OUR AREA  *****

CITY           SKY/WX    TMP DP  RH WIND       PRES   REMARKS
WALHALLA       FAIR      16  12  86 CALM      29.91S
GRAFTON AIRPOR NOT AVBL
VALLEY CITY AR NOT AVBL
CANDO          PTSUNNY   16  16 100 S7        29.88F WCI   6
CAVALIER APRT  FAIR      14   9  79 SW7       29.92F WCI   4
GWINNER          N/A     18  16  93 S7        29.99F WCI   8
SHEYENNE NWR     N/A     17  15  91 W7        29.95S WCI   8
ROLLA          CLOUDY    18  16  93 SW10      29.82F WCI   6
 ***** THE ABOVE OBSERVATIONS ARE NON NWS ARE NOT QUALITY
       CONTROLLED AND MAY MIS-REPORT RAIN FOR SNOW...
$$

  *****  WEATHER ACROSS NORTHERN MINNESOTA  *****

CITY           SKY/WX    TMP DP  RH WIND       PRES   REMARKS
FLAG ISLAND    FAIR       7   1  78 W7        29.90S WCI  -5
WARROAD        FAIR       9   5  85 SW6       29.91F WCI  -1
ROSEAU         CLOUDY    12   9  85 SW5       29.92F WCI   4
HALLOCK        CLOUDY    12   9  85 S6        29.93F WCI   3
THF RVR FALLS  FAIR      12   9  87 S5        29.95F WCI   4
6HR MIN TEMP:   9; 6HR MAX TEMP:  13;

BAUDETTE       FAIR       5   1  83 SW5       29.92S WCI  -4
6HR MIN TEMP:   4; 6HR MAX TEMP:   8;

WASKISH        FAIR      12   9  85 W8        29.93F WCI   1
CROOKSTON      FAIR      14  10  85 S6        29.96F WCI   5
STEPHEN NDAWN    N/A     12   9  85 S6          N/A  WCI   3
GREENBUSH NDAW   N/A     10   7  85 SW7         N/A  WCI   0
$$
  *****  WEATHER ACROSS CENTRAL AND WEST MINNESOTA  *****

CITY           SKY/WX    TMP DP  RH WIND       PRES   REMARKS
FOSSTON        FAIR      10   9  92 SW5       29.95F WCI   2
BEMIDJI        FAIR      10   6  85 SW3       29.93F
6HR MIN TEMP:   8; 6HR MAX TEMP:  10;

PARK RAPIDS    FAIR      10   6  84 SW5       29.95F WCI   2
6HR MIN TEMP:   8; 6HR MAX TEMP:  11;

ELBOW LAKE     FAIR      14  11  89 E5        30.01F WCI   7
WADENA         FAIR      12   9  85 SW3       29.99R
DETROIT LAKES  FAIR      16  14  93 SW5       29.97F WCI   9
MOORHEAD       FAIR      16  10  79 CALM      29.99F
FERGUS FALLS   FAIR      12   9  85 S6        30.03F WCI   3
MORRIS MN      FAIR      16  10  79 S7        30.01F WCI   6
STAPLES        FAIR      10   9  92 SW5       29.99F WCI   2
$$
  *****  WEATHER ELSEWHERE ACROSS MINNESOTA  *****

CITY           SKY/WX    TMP DP  RH WIND       PRES   REMARKS
DULUTH         FAIR       9   6  88 W7        29.93S WCI  -2
6HR MIN TEMP:   9; 6HR MAX TEMP:  15; 6HR PCP: TRACE;

INTRNTL FALLS  FAIR       3  -1  83 SW5       29.91F WCI  -6
6HR MIN TEMP:   2; 6HR MAX TEMP:  13; 6HR PCP: TRACE;

ELY            FAIR       7   5  92 W6        29.90R WCI  -3
CLOQUET        FAIR      10   5  79 W6        29.96R WCI   1
WHEATON        FAIR      19  14  79 S7        30.03F WCI  10
BRAINERD       FAIR      13   8  81 SW7       30.00R WCI   3
6HR MIN TEMP:  12; 6HR MAX TEMP:  17;

HIBBING        FAIR       4   1  88 SW5       29.93F WCI  -5
6HR MIN TEMP:   3; 6HR MAX TEMP:  12;

ALEXANDRIA     FAIR      15  12  88 SW5       30.01F WCI   8
6HR MIN TEMP:  13; 6HR MAX TEMP:  16;

SAINT CLOUD    FAIR      14  10  84 W6        30.04S WCI   5
6HR MIN TEMP:  13; 6HR MAX TEMP:  17;

MINNEAPOLIS    FAIR      19  11  70 W5        30.07S WCI  12
6HR MIN TEMP:  18; 6HR MAX TEMP:  21;

$$

  *****  WEATHER ACROSS SOUTH DAKOTA  *****

CITY           SKY/WX    TMP DP  RH WIND       PRES   REMARKS
SIOUX FALLS    FAIR      24  18  77 SW5       30.10F WCI  18
6HR MIN TEMP:  20; 6HR MAX TEMP:  24;

BROOKINGS      FAIR      20  16  84 SW7       30.06F WCI  11
WATERTOWN      FAIR      21  17  84 SW9       30.01F WCI  11
6HR MIN TEMP:  16; 6HR MAX TEMP:  23;

HURON          FAIR      23  19  85 S8        30.06F WCI  14
6HR MIN TEMP:  20; 6HR MAX TEMP:  23;

SISSETON         N/A     29  19  66 W17G25    29.98F WCI  17
ABERDEEN       FAIR      17  15  92 S7        30.03F WCI   8
6HR MIN TEMP:  10; 6HR MAX TEMP:  17;

MITCHELL       FAIR      27  21  78 SW9       30.09F WCI  18
PIERRE         FAIR      27  22  81 SW13      30.03F WCI  16
6HR MIN TEMP:  23; 6HR MAX TEMP:  28;

MOBRIDGE       FAIR      22  18  85 E6        29.97F WCI  14
RAPID CITY     FAIR      23  13  65 CALM      30.01F
6HR MIN TEMP:  19; 6HR MAX TEMP:  30;

$$

  *****  SOME WEATHER IN NEARBY STATES *****

CITY           SKY/WX    TMP DP  RH WIND       PRES   REMARKS
GLASGOW MT     FAIR      25  19  78 CALM      29.89F
6HR MIN TEMP:  23; 6HR MAX TEMP:  30;

GREAT FALLS MT FAIR      41  12  30 SW31G49   29.87F
6HR MIN TEMP:  38; 6HR MAX TEMP:  42;

CHEYENNE WY    FAIR      32  11  41 W7        30.13F
6HR MIN TEMP:  28; 6HR MAX TEMP:  35;

SCOTTSBLUFF NE FAIR      20  12  71 CALM      30.13F
6HR MIN TEMP:  18; 6HR MAX TEMP:  26;

OMAHA NE       FAIR      25  17  72 S3        30.20F
6HR MIN TEMP:  24; 6HR MAX TEMP:  30;

DES MOINES IA  FAIR      23  15  71 W5        30.17F WCI  17
6HR MIN TEMP:  23; 6HR MAX TEMP:  30;

DAVENPORT IA   FAIR      22  16  78 NW12      30.10R WCI  10
6HR MIN TEMP:  22; 6HR MAX TEMP:  28;

CHICAGO IL     CLOUDY    31  20  63 W12G20    29.94R WCI  22
6HR MIN TEMP:  31; 6HR MAX TEMP:  38;

EAU CLAIRE WI  FAIR      16  10  77 W7        30.03S WCI   6
6HR MIN TEMP:  16; 6HR MAX TEMP:  23;

LA CROSSE WI   FAIR      21  13  71 N10       30.05S WCI  10
6HR MIN TEMP:  20; 6HR MAX TEMP:  28;

$$

  *****  SOME NATIONAL WEATHER *****

CITY           SKY/WX    TMP DP  RH WIND       PRES   REMARKS
LA GUARDIA NY  LGT RAIN  58  53  84 SW20G35   29.22F
6HR MIN TEMP:  57; 6HR MAX TEMP:  60; 6HR PCP:  0.21;

RALEIGH NC     MOCLDY    53  41  63 NW8G20    29.70R
6HR MIN TEMP:  53; 6HR MAX TEMP:  64; 6HR PCP:  0.08;

ATLANTA GA     MOCLDY    45  36  70 NW16G26   29.97R
6HR MIN TEMP:  45; 6HR MAX TEMP:  53; 6HR PCP: TRACE;

NEW ORLEANS LA FAIR      52  39  61 N15G28    30.14R
6HR MIN TEMP:  52; 6HR MAX TEMP:  63;

OKLAHOMA CITY  FAIR      34  24  67 CALM      30.32R
6HR MIN TEMP:  31; 6HR MAX TEMP:  39;

ALBUQUERQUE NM FAIR      31   8  38 N9        30.32F WCI  23
6HR MIN TEMP:  29; 6HR MAX TEMP:  38;

SALT LAKE CITY MOCLDY    30  24  78 SE3       30.29F
6HR MIN TEMP:  30; 6HR MAX TEMP:  34;

LOS ANGELES CA FAIR


USA.gov is the U.S. government's official web portal to all federal, state and local government web resources and services.